Bangor, ME

10:26 AM EDT on October 22, 2019 (GMT -0400)
Bangor International

Weather History for KBGR - August, 2019

Change the Weather History Date:

Friday, August 2, 2019

  Actual Average Record
Temperature  
Mean Temperature 70 °F 69 °F  
Max Temperature 85 °F 80 °F 102 °F (1975)
Min Temperature 54 °F 58 °F 40 °F (1941)
Degree Days  
Heating Degree Days 0 1  
Month to date heating degree days 0 2  
Since 1 June heating degree days 90 132  
Since 1 July heating degree days 0 25  
Cooling Degree Days 5 4  
Month to date cooling degree days 11 8  
Year to date cooling degree days 237 198  
Since 1 June cooling degree days 237 192  
Growing Degree Days 20 (Base 50)    
Moisture  
Dew Point 55 °F    
Average Humidity 64    
Maximum Humidity 93    
Minimum Humidity 34    
Precipitation  
Precipitation 0.00 in 0.11 in 1.86 in (1971)
Month to date precipitation T 0.22  
Year to date precipitation 28.67 23.49  
Snow  
Snow 0.00 in 0.00 in 0.00 in (2002)
Month to date snowfall 0.0 0.0  
Since 1 June snowfall 0.0 0.0  
Since 1 July snowfall 0.0 0.0  
Snow Depth 0.00 in    
Sea Level Pressure  
Sea Level Pressure 30.06 in    
Wind  
Wind Speed 3 mph (SW)    
Max Wind Speed 13 mph    
Max Gust Speed 17 mph    
Visibility 10 miles    
Events Fog    
T = Trace of Precipitation, MM = Missing Value Source: NWS Daily Summary

Daily Weather History Graph

Daily Weather History Graph

Search for Another Location

Airport or City:

Astronomy

Aug. 02, 2019 Rise Set
Actual Time 5:22 AM EDT 8:00 PM EDT
Civil Twilight 4:48 AM EDT 8:33 PM EDT
Nautical Twilight 4:06 AM EDT 9:15 PM EDT
Astronomical Twilight 3:17 AM EDT 10:03 PM EDT
Moon 6:58 AM EDT (8/2) 9:22 PM EDT (8/2)
Length of Visible Light 15h 45m
Length of Day
14h 38m
Waxing Crescent, 4% of the Moon is Illuminated
Aug 2
Waxing Crescent
Aug 7
First Quarter
Aug 15
Full
Aug 23
Last Quarter
Aug 30
New

Hourly Weather History & Observations

Time (EDT) Temp. Heat Index Dew Point Humidity Pressure Visibility Wind Dir Wind Speed Gust Speed Precip Events Conditions
12:53 AM 57.9 °F - 53.1 °F 84% 30.08 in 10.0 mi SSW 3.5 mph - N/A   Clear
1:53 AM 57.9 °F - 55.0 °F 90% 30.08 in 10.0 mi Calm Calm - N/A   Clear
2:53 AM 57.0 °F - 54.0 °F 89% 30.07 in 10.0 mi Calm Calm - N/A   Clear
3:53 AM 55.0 °F - 53.1 °F 93% 30.07 in 10.0 mi SSW 3.5 mph - N/A   Clear
4:53 AM 55.0 °F - 53.1 °F 93% 30.08 in 10.0 mi Calm Calm - N/A   Partly Cloudy
5:53 AM 55.9 °F - 52.0 °F 87% 30.10 in 10.0 mi Calm Calm - N/A Fog Patches of Fog
6:53 AM 61.0 °F - 55.0 °F 81% 30.10 in 10.0 mi Calm Calm - N/A   Clear
7:53 AM 64.9 °F - 55.0 °F 70% 30.11 in 10.0 mi SSW 4.6 mph - N/A   Clear
8:53 AM 70.0 °F - 55.0 °F 59% 30.10 in 10.0 mi WSW 5.8 mph - N/A   Clear
9:53 AM 73.9 °F - 55.0 °F 52% 30.10 in 10.0 mi Calm Calm - N/A   Clear
10:53 AM 77.0 °F - 57.0 °F 50% 30.09 in 10.0 mi Variable 3.5 mph - N/A   Partly Cloudy
11:53 AM 80.1 °F 80.2 °F 55.9 °F 43% 30.08 in 10.0 mi WNW 6.9 mph - N/A   Partly Cloudy
12:53 PM 82.9 °F 81.9 °F 54.0 °F 37% 30.06 in 10.0 mi Variable 6.9 mph - N/A   Partly Cloudy
1:53 PM 82.9 °F - 52.0 °F 34% 30.04 in 10.0 mi WSW 10.4 mph - N/A   Scattered Clouds
2:53 PM 84.0 °F 82.5 °F 53.1 °F 34% 30.03 in 10.0 mi WSW 8.1 mph - N/A   Scattered Clouds
3:53 PM 84.9 °F 83.2 °F 53.1 °F 33% 30.03 in 10.0 mi West 9.2 mph - N/A   Scattered Clouds
4:53 PM 82.9 °F - 51.1 °F 33% 30.02 in 10.0 mi West 5.8 mph - N/A   Scattered Clouds
5:53 PM 82.0 °F 81.2 °F 53.1 °F 37% 30.02 in 10.0 mi SW 4.6 mph - N/A   Mostly Cloudy
6:53 PM 80.1 °F 80.1 °F 55.0 °F 42% 30.02 in 10.0 mi SW 6.9 mph - N/A   Scattered Clouds
7:53 PM 75.9 °F - 57.9 °F 54% 30.03 in 10.0 mi South 3.5 mph - N/A   Partly Cloudy
8:53 PM 68.0 °F - 60.1 °F 76% 30.04 in 10.0 mi SE 3.5 mph - N/A   Partly Cloudy
9:53 PM 70.0 °F - 59.0 °F 68% 30.05 in 10.0 mi Calm Calm - N/A   Clear
10:53 PM 64.9 °F - 59.0 °F 81% 30.04 in 10.0 mi South 3.5 mph - N/A   Clear
11:53 PM 62.1 °F - 57.0 °F 84% 30.05 in 10.0 mi Calm Calm - N/A   Clear